Time,TemperatureF,DewpointF,PressureIn,WindDirection,WindDirectionDegrees,WindSpeedMPH,WindSpeedGustMPH,Humidity,HourlyPrecipIn,Conditions,Clouds,dailyrainin,SoftwareType,DateUTC
2013-06-23 00:03:00,60.1,15.1,29.59,NNW,342,2.0,6.0,17,0.00,,,0.00,meteohub,2013-06-23 06:03:00,
2013-06-23 00:08:00,60.4,15.4,29.59,NNW,329,3.0,5.0,17,0.00,,,0.00,meteohub,2013-06-23 06:08:00,
2013-06-23 00:13:00,60.1,15.1,29.59,East,91,1.0,5.0,17,0.00,,,0.00,meteohub,2013-06-23 06:13:00,
2013-06-23 00:18:00,59.7,16.2,29.59,NNW,340,4.0,4.0,18,0.00,,,0.00,meteohub,2013-06-23 06:18:00,
2013-06-23 00:24:00,58.8,16.7,29.60,North,8,2.0,7.0,19,0.00,,,0.00,meteohub,2013-06-23 06:24:00,
2013-06-23 00:29:00,57.6,16.7,29.60,NNE,29,4.0,8.0,20,0.00,,,0.00,meteohub,2013-06-23 06:29:00,
2013-06-23 00:34:00,56.7,17.2,29.60,NW,318,2.0,8.0,21,0.00,,,0.00,meteohub,2013-06-23 06:34:00,
2013-06-23 00:39:00,56.1,17.8,29.60,NNE,14,3.0,8.0,22,0.00,,,0.00,meteohub,2013-06-23 06:39:00,
2013-06-23 00:44:00,56.3,18.0,29.60,NW,326,4.0,8.0,22,0.00,,,0.00,meteohub,2013-06-23 06:44:00,
2013-06-23 00:49:00,56.5,18.1,29.60,NNW,329,5.0,7.0,22,0.00,,,0.00,meteohub,2013-06-23 06:49:00,
2013-06-23 00:54:00,56.5,18.1,29.60,NNW,338,10.0,10.0,22,0.00,,,0.00,meteohub,2013-06-23 06:54:00,
2013-06-23 00:59:00,56.3,18.0,29.60,NNW,333,7.0,11.0,22,0.00,,,0.00,meteohub,2013-06-23 06:59:00,
2013-06-23 01:04:00,56.7,18.3,29.61,NW,304,4.0,11.0,22,0.00,,,0.00,meteohub,2013-06-23 07:04:00,
2013-06-23 01:09:00,56.5,18.1,29.61,NW,323,4.0,11.0,22,0.00,,,0.00,meteohub,2013-06-23 07:09:00,
2013-06-23 01:14:00,56.8,18.3,29.61,NW,314,3.0,11.0,22,0.00,,,0.00,meteohub,2013-06-23 07:14:00,
2013-06-23 01:19:00,57.0,17.4,29.61,NW,307,5.0,11.0,21,0.00,,,0.00,meteohub,2013-06-23 07:19:00,
2013-06-23 01:24:00,56.8,17.2,29.62,WNW,295,4.0,11.0,21,0.00,,,0.00,meteohub,2013-06-23 07:24:00,
2013-06-23 01:29:00,56.5,18.1,29.62,NW,311,3.0,8.0,22,0.00,,,0.00,meteohub,2013-06-23 07:29:00,
2013-06-23 01:34:00,56.7,17.2,29.62,NNW,339,6.0,8.0,21,0.00,,,0.00,meteohub,2013-06-23 07:34:00,
2013-06-23 01:39:00,57.4,17.8,29.62,NW,325,6.0,10.0,21,0.00,,,0.00,meteohub,2013-06-23 07:39:00,
2013-06-23 01:44:00,56.7,17.2,29.62,NW,320,5.0,10.0,21,0.00,,,0.00,meteohub,2013-06-23 07:44:00,
2013-06-23 01:50:00,56.7,17.2,29.62,NNW,329,8.0,10.0,21,0.00,,,0.00,meteohub,2013-06-23 07:50:00,
2013-06-23 01:55:00,56.7,17.2,29.62,NNW,327,10.0,10.0,21,0.00,,,0.00,meteohub,2013-06-23 07:55:00,
2013-06-23 02:00:00,55.8,17.4,29.62,NNW,336,12.0,12.0,22,0.00,,,0.00,meteohub,2013-06-23 08:00:00,
2013-06-23 02:05:00,55.2,17.1,29.62,NW,319,10.0,11.0,22,0.00,,,0.00,meteohub,2013-06-23 08:05:00,
2013-06-23 02:10:00,55.0,18.0,29.62,NW,316,7.0,13.0,23,0.00,,,0.00,meteohub,2013-06-23 08:10:00,
2013-06-23 02:15:00,54.7,17.6,29.62,NW,325,10.0,13.0,23,0.00,,,0.00,meteohub,2013-06-23 08:15:00,
2013-06-23 02:20:00,54.7,17.6,29.62,NW,321,8.0,13.0,23,0.00,,,0.00,meteohub,2013-06-23 08:20:00,
2013-06-23 02:25:00,54.9,17.8,29.62,NNW,327,6.0,13.0,23,0.00,,,0.00,meteohub,2013-06-23 08:25:00,
2013-06-23 02:30:00,54.7,18.5,29.62,NNW,333,6.0,14.0,24,0.00,,,0.00,meteohub,2013-06-23 08:30:00,
2013-06-23 02:35:00,54.3,18.3,29.62,NNW,328,5.0,14.0,24,0.00,,,0.00,meteohub,2013-06-23 08:35:00,
2013-06-23 02:40:00,53.4,18.5,29.62,NNW,338,5.0,15.0,25,0.00,,,0.00,meteohub,2013-06-23 08:40:00,
2013-06-23 02:45:00,52.3,18.5,29.62,NNW,333,6.0,9.0,26,0.00,,,0.00,meteohub,2013-06-23 08:45:00,
2013-06-23 02:50:00,51.4,18.5,29.62,NNW,331,7.0,10.0,27,0.00,,,0.00,meteohub,2013-06-23 08:50:00,
2013-06-23 02:55:00,51.3,18.3,29.62,NW,321,6.0,10.0,27,0.00,,,0.00,meteohub,2013-06-23 08:55:00,
2013-06-23 03:01:00,50.9,18.1,29.62,NW,326,8.0,10.0,27,0.00,,,0.00,meteohub,2013-06-23 09:01:00,
2013-06-23 03:06:00,50.5,19.4,29.62,NNW,338,5.0,11.0,29,0.00,,,0.00,meteohub,2013-06-23 09:06:00,
2013-06-23 03:11:00,50.0,19.8,29.62,NNW,333,6.0,11.0,30,0.00,,,0.00,meteohub,2013-06-23 09:11:00,
2013-06-23 03:16:00,50.0,19.8,29.62,NNW,330,6.0,11.0,30,0.00,,,0.00,meteohub,2013-06-23 09:16:00,
2013-06-23 03:21:00,50.2,19.2,29.62,WNW,302,5.0,9.0,29,0.00,,,0.00,meteohub,2013-06-23 09:21:00,
2013-06-23 03:26:00,50.9,18.9,29.62,WNW,297,4.0,9.0,28,0.00,,,0.00,meteohub,2013-06-23 09:26:00,
2013-06-23 03:31:00,51.4,18.5,29.63,NNW,328,5.0,8.0,27,0.00,,,0.00,meteohub,2013-06-23 09:31:00,
2013-06-23 03:36:00,52.2,18.3,29.62,NNW,334,5.0,7.0,26,0.00,,,0.00,meteohub,2013-06-23 09:36:00,
2013-06-23 03:41:00,52.5,17.8,29.62,WNW,287,3.0,7.0,25,0.00,,,0.00,meteohub,2013-06-23 09:41:00,
2013-06-23 03:46:00,53.2,17.4,29.62,NNW,336,2.0,7.0,24,0.00,,,0.00,meteohub,2013-06-23 09:46:00,
2013-06-23 03:51:00,52.3,16.5,29.62,NNW,341,4.0,6.0,24,0.00,,,0.00,meteohub,2013-06-23 09:51:00,
2013-06-23 03:56:00,51.1,17.4,29.62,NNW,340,2.0,6.0,26,0.00,,,0.00,meteohub,2013-06-23 09:56:00,
2013-06-23 04:01:00,50.2,16.5,29.62,NW,318,4.0,6.0,26,0.00,,,0.00,meteohub,2013-06-23 10:01:00,
2013-06-23 04:06:00,51.6,16.9,29.63,NW,312,5.0,9.0,25,0.00,,,0.00,meteohub,2013-06-23 10:06:00,
2013-06-23 04:11:00,52.2,16.5,29.63,NNW,335,7.0,9.0,24,0.00,,,0.00,meteohub,2013-06-23 10:11:00,
2013-06-23 04:16:00,51.4,16.7,29.63,NW,316,7.0,9.0,25,0.00,,,0.00,meteohub,2013-06-23 10:16:00,
2013-06-23 04:22:00,51.3,17.6,29.63,NW,326,6.0,10.0,26,0.00,,,0.00,meteohub,2013-06-23 10:22:00,
2013-06-23 04:27:00,51.1,17.4,29.64,NNW,329,6.0,10.0,26,0.00,,,0.00,meteohub,2013-06-23 10:27:00,
2013-06-23 04:32:00,50.7,18.0,29.64,NNW,333,7.0,10.0,27,0.00,,,0.00,meteohub,2013-06-23 10:32:00,
2013-06-23 04:37:00,49.6,17.1,29.64,NW,315,4.0,8.0,27,0.00,,,0.00,meteohub,2013-06-23 10:37:00,
2013-06-23 04:42:00,49.5,16.9,29.64,NW,325,9.0,9.0,27,0.00,,,0.00,meteohub,2013-06-23 10:42:00,
2013-06-23 04:47:00,49.3,16.7,29.65,North,0,8.0,10.0,27,0.00,,,0.00,meteohub,2013-06-23 10:47:00,
2013-06-23 04:52:00,49.3,18.3,29.65,NNW,327,5.0,10.0,29,0.00,,,0.00,meteohub,2013-06-23 10:52:00,
2013-06-23 04:57:00,48.9,18.0,29.65,NW,323,6.0,10.0,29,0.00,,,0.00,meteohub,2013-06-23 10:57:00,
2013-06-23 05:02:00,48.7,18.7,29.65,NNW,338,5.0,9.0,30,0.00,,,0.00,meteohub,2013-06-23 11:02:00,
2013-06-23 05:07:00,48.7,19.4,29.65,NW,320,4.0,10.0,31,0.00,,,0.00,meteohub,2013-06-23 11:07:00,
2013-06-23 05:12:00,48.4,19.0,29.66,NNW,343,3.0,10.0,31,0.00,,,0.00,meteohub,2013-06-23 11:12:00,
2013-06-23 05:17:00,48.4,19.9,29.66,NW,325,7.0,9.0,32,0.00,,,0.00,meteohub,2013-06-23 11:17:00,
2013-06-23 05:22:00,48.4,19.0,29.66,NW,318,4.0,8.0,31,0.00,,,0.00,meteohub,2013-06-23 11:22:00,
2013-06-23 05:27:00,48.9,18.9,29.66,NNW,330,7.0,7.0,30,0.00,,,0.00,meteohub,2013-06-23 11:27:00,
2013-06-23 05:32:00,49.3,18.3,29.66,NW,325,5.0,10.0,29,0.00,,,0.00,meteohub,2013-06-23 11:32:00,
2013-06-23 05:37:00,49.1,19.0,29.66,NNW,329,7.0,10.0,30,0.00,,,0.00,meteohub,2013-06-23 11:37:00,
2013-06-23 05:42:00,49.3,19.2,29.67,NW,323,7.0,10.0,30,0.00,,,0.00,meteohub,2013-06-23 11:42:00,
2013-06-23 05:47:00,48.7,19.4,29.67,NNW,327,5.0,10.0,31,0.00,,,0.00,meteohub,2013-06-23 11:47:00,
2013-06-23 05:52:00,48.0,19.6,29.68,NW,316,7.0,10.0,32,0.00,,,0.00,meteohub,2013-06-23 11:52:00,
2013-06-23 05:57:00,46.8,19.9,29.68,NW,323,8.0,11.0,34,0.00,,,0.00,meteohub,2013-06-23 11:57:00,
2013-06-23 06:02:00,46.2,20.1,29.68,NNW,337,4.0,11.0,35,0.00,,,0.00,meteohub,2013-06-23 12:02:00,
2013-06-23 06:07:00,46.6,19.8,29.68,WNW,296,5.0,11.0,34,0.00,,,0.00,meteohub,2013-06-23 12:07:00,
2013-06-23 06:12:00,47.3,19.6,29.68,NW,316,4.0,8.0,33,0.00,,,0.00,meteohub,2013-06-23 12:12:00,
2013-06-23 06:17:00,48.0,19.6,29.68,NW,318,4.0,8.0,32,0.00,,,0.00,meteohub,2013-06-23 12:17:00,
2013-06-23 06:22:00,48.7,19.4,29.68,NW,325,4.0,8.0,31,0.00,,,0.00,meteohub,2013-06-23 12:22:00,
2013-06-23 06:27:00,49.8,19.6,29.68,NW,321,2.0,6.0,30,0.00,,,0.00,meteohub,2013-06-23 12:27:00,
2013-06-23 06:32:00,50.5,19.4,29.67,NNW,328,3.0,6.0,29,0.00,,,0.00,meteohub,2013-06-23 12:32:00,
2013-06-23 06:37:00,51.3,19.2,29.67,NNW,327,6.0,6.0,28,0.00,,,0.00,meteohub,2013-06-23 12:37:00,
2013-06-23 06:42:00,51.6,19.6,29.68,NNW,334,2.0,6.0,28,0.00,,,0.00,meteohub,2013-06-23 12:42:00,
2013-06-23 06:47:00,52.2,20.1,29.68,NE,34,2.0,7.0,28,0.00,,,0.00,meteohub,2013-06-23 12:47:00,
2013-06-23 06:52:00,52.0,21.6,29.68,North,355,6.0,7.0,30,0.00,,,0.00,meteohub,2013-06-23 12:52:00,
2013-06-23 06:57:00,50.5,21.0,29.68,NW,321,5.0,8.0,31,0.00,,,0.00,meteohub,2013-06-23 12:57:00,
2013-06-23 07:02:00,49.8,22.6,29.68,North,7,5.0,8.0,34,0.00,,,0.00,meteohub,2013-06-23 13:02:00,
2013-06-23 07:07:00,49.3,22.8,29.68,NNW,338,4.0,9.0,35,0.00,,,0.00,meteohub,2013-06-23 13:07:00,
2013-06-23 07:12:00,48.9,23.2,29.68,NW,321,5.0,9.0,36,0.00,,,0.00,meteohub,2013-06-23 13:12:00,
2013-06-23 07:17:00,48.7,23.0,29.68,NNW,336,3.0,10.0,36,0.00,,,0.00,meteohub,2013-06-23 13:17:00,
2013-06-23 07:22:00,49.3,23.5,29.68,NW,325,8.0,10.0,36,0.00,,,0.00,meteohub,2013-06-23 13:22:00,
2013-06-23 07:27:00,50.2,22.8,29.68,NW,317,3.0,9.0,34,0.00,,,0.00,meteohub,2013-06-23 13:27:00,
2013-06-23 07:32:00,51.3,23.2,29.69,NNW,335,4.0,9.0,33,0.00,,,0.00,meteohub,2013-06-23 13:32:00,
2013-06-23 07:37:00,52.0,22.3,29.69,NNW,341,3.0,9.0,31,0.00,,,0.00,meteohub,2013-06-23 13:37:00,
2013-06-23 07:42:00,53.1,23.2,29.69,NNW,335,3.0,6.0,31,0.00,,,0.00,meteohub,2013-06-23 13:42:00,
2013-06-23 07:47:00,53.8,23.0,29.68,NW,314,1.0,6.0,30,0.00,,,0.00,meteohub,2013-06-23 13:47:00,
2013-06-23 07:52:00,54.0,23.2,29.68,NW,311,4.0,4.0,30,0.00,,,0.00,meteohub,2013-06-23 13:52:00,
2013-06-23 07:57:00,54.1,21.7,29.68,NNW,329,2.0,5.0,28,0.00,,,0.00,meteohub,2013-06-23 13:57:00,
2013-06-23 08:02:00,54.9,24.1,29.68,NNW,342,6.0,6.0,30,0.00,,,0.00,meteohub,2013-06-23 14:02:00,
2013-06-23 08:12:00,54.9,23.2,29.69,North,349,5.0,9.0,29,0.00,,,0.00,meteohub,2013-06-23 14:12:00,
2013-06-23 08:17:00,55.6,24.6,29.69,WNW,297,5.0,9.0,30,0.00,,,0.00,meteohub,2013-06-23 14:17:00,
2013-06-23 08:22:00,55.8,24.8,29.69,NW,321,6.0,9.0,30,0.00,,,0.00,meteohub,2013-06-23 14:22:00,
2013-06-23 08:27:00,55.9,25.0,29.69,NNW,336,4.0,7.0,30,0.00,,,0.00,meteohub,2013-06-23 14:27:00,
2013-06-23 08:32:00,56.7,25.5,29.69,NNW,341,5.0,7.0,30,0.00,,,0.00,meteohub,2013-06-23 14:32:00,
2013-06-23 08:37:00,57.0,25.0,29.69,NW,312,1.0,7.0,29,0.00,,,0.00,meteohub,2013-06-23 14:37:00,
2013-06-23 08:42:00,58.3,26.2,29.69,NNW,336,1.0,7.0,29,0.00,,,0.00,meteohub,2013-06-23 14:42:00,
2013-06-23 08:47:00,59.5,26.4,29.69,East,79,0.0,7.0,28,0.00,,,0.00,meteohub,2013-06-23 14:47:00,
2013-06-23 08:52:00,60.6,22.6,29.69,SE,135,2.0,5.0,23,0.00,,,0.00,meteohub,2013-06-23 14:52:00,
2013-06-23 08:57:00,61.2,23.0,29.69,SSE,162,7.0,9.0,23,0.00,,,0.00,meteohub,2013-06-23 14:57:00,
2013-06-23 09:02:00,61.5,21.2,29.69,South,184,7.0,10.0,21,0.00,,,0.00,meteohub,2013-06-23 15:02:00,
2013-06-23 09:08:00,61.5,23.4,29.69,SE,146,6.0,10.0,23,0.00,,,0.00,meteohub,2013-06-23 15:08:00,
2013-06-23 09:13:00,61.2,23.0,29.69,SSE,152,7.0,12.0,23,0.00,,,0.00,meteohub,2013-06-23 15:13:00,
2013-06-23 09:18:00,61.3,22.1,29.69,SSW,200,5.0,13.0,22,0.00,,,0.00,meteohub,2013-06-23 15:18:00,
2013-06-23 09:23:00,61.9,20.3,29.68,SE,136,5.0,13.0,20,0.00,,,0.00,meteohub,2013-06-23 15:23:00,
2013-06-23 09:28:00,62.4,21.9,29.68,SSW,201,12.0,13.0,21,0.00,,,0.00,meteohub,2013-06-23 15:28:00,
2013-06-23 09:33:00,63.1,22.6,29.68,SSE,166,11.0,15.0,21,0.00,,,0.00,meteohub,2013-06-23 15:33:00,
2013-06-23 09:39:00,63.3,24.8,29.67,South,187,8.0,15.0,23,0.00,,,0.00,meteohub,2013-06-23 15:39:00,
2013-06-23 09:44:00,63.9,26.4,29.67,South,172,11.0,16.0,24,0.00,,,0.00,meteohub,2013-06-23 15:44:00,
2013-06-23 09:49:00,64.4,27.9,29.66,ENE,70,8.0,16.0,25,0.00,,,0.00,meteohub,2013-06-23 15:49:00,
2013-06-23 09:54:00,64.9,28.2,29.66,ESE,103,5.0,16.0,25,0.00,,,0.00,meteohub,2013-06-23 15:54:00,
2013-06-23 09:59:00,65.3,28.6,29.65,SW,219,11.0,16.0,25,0.00,,,0.00,meteohub,2013-06-23 15:59:00,
2013-06-23 10:05:00,65.3,28.6,29.65,South,173,9.0,18.0,25,0.00,,,0.00,meteohub,2013-06-23 16:05:00,
2013-06-23 10:10:00,66.0,29.1,29.65,SSW,207,14.0,18.0,25,0.00,,,0.00,meteohub,2013-06-23 16:10:00,
2013-06-23 10:15:00,66.4,28.4,29.64,West,278,4.0,18.0,24,0.00,,,0.00,meteohub,2013-06-23 16:15:00,
2013-06-23 10:20:00,66.9,28.9,29.64,SSW,208,6.0,17.0,24,0.00,,,0.00,meteohub,2013-06-23 16:20:00,
2013-06-23 10:25:00,67.6,29.5,29.64,SSE,159,7.0,17.0,24,0.00,,,0.00,meteohub,2013-06-23 16:25:00,
2013-06-23 10:30:00,68.4,28.0,29.64,South,174,17.0,17.0,22,0.00,,,0.00,meteohub,2013-06-23 16:30:00,
2013-06-23 10:36:00,68.7,28.4,29.63,NW,321,3.0,17.0,22,0.00,,,0.00,meteohub,2013-06-23 16:36:00,
2013-06-23 10:41:00,69.4,26.6,29.63,ESE,122,11.0,18.0,20,0.00,,,0.00,meteohub,2013-06-23 16:41:00,
2013-06-23 10:46:00,69.3,27.7,29.63,SW,221,11.0,18.0,21,0.00,,,0.00,meteohub,2013-06-23 16:46:00,
2013-06-23 10:51:00,69.4,26.6,29.62,SSW,201,14.0,18.0,20,0.00,,,0.00,meteohub,2013-06-23 16:51:00,
2013-06-23 10:56:00,69.4,27.9,29.62,South,181,10.0,19.0,21,0.00,,,0.00,meteohub,2013-06-23 16:56:00,
2013-06-23 10:57:00,69.4,26.6,29.62,ESE,115,13.0,19.0,20,0.00,,,0.00,meteohub,2013-06-23 16:57:00,
2013-06-23 10:58:00,69.6,25.5,29.62,South,176,12.0,19.0,19,0.00,,,0.00,meteohub,2013-06-23 16:58:00,
2013-06-23 11:00:00,69.4,25.3,29.62,SSE,156,9.0,19.0,19,0.00,,,0.00,meteohub,2013-06-23 17:00:00,
2013-06-23 11:04:00,70.2,26.1,29.62,East,96,11.0,19.0,19,0.00,,,0.00,meteohub,2013-06-23 17:04:00,
2013-06-23 11:07:00,70.3,26.1,29.62,ESE,121,3.0,19.0,19,0.00,,,0.00,meteohub,2013-06-23 17:07:00,
2013-06-23 11:12:00,71.2,24.3,29.62,ESE,112,14.0,17.0,17,0.00,,,0.00,meteohub,2013-06-23 17:12:00,
2013-06-23 11:17:00,71.2,25.5,29.62,SSE,166,10.0,17.0,18,0.00,,,0.00,meteohub,2013-06-23 17:17:00,
2013-06-23 11:22:00,71.4,21.4,29.61,SSE,158,8.0,17.0,15,0.00,,,0.00,meteohub,2013-06-23 17:22:00,
2013-06-23 11:27:00,71.6,24.4,29.61,SE,145,6.0,17.0,17,0.00,,,0.00,meteohub,2013-06-23 17:27:00,
2013-06-23 11:32:00,72.0,24.8,29.61,SSE,165,10.0,18.0,17,0.00,,,0.00,meteohub,2013-06-23 17:32:00,
2013-06-23 11:37:00,72.0,26.1,29.60,SE,125,11.0,18.0,18,0.00,,,0.00,meteohub,2013-06-23 17:37:00,
2013-06-23 11:43:00,72.5,25.2,29.60,SW,224,14.0,18.0,17,0.00,,,0.00,meteohub,2013-06-23 17:43:00,
2013-06-23 11:48:00,72.3,23.5,29.60,SE,142,4.0,17.0,16,0.00,,,0.00,meteohub,2013-06-23 17:48:00,
2013-06-23 11:53:00,73.0,24.3,29.59,SE,138,14.0,17.0,16,0.00,,,0.00,meteohub,2013-06-23 17:53:00,
2013-06-23 11:58:00,73.6,23.0,29.60,SSW,207,12.0,17.0,15,0.00,,,0.00,meteohub,2013-06-23 17:58:00,
2013-06-23 12:03:00,73.2,22.8,29.60,ESE,122,13.0,19.0,15,0.00,,,0.00,meteohub,2013-06-23 18:03:00,
2013-06-23 12:08:00,73.6,21.4,29.59,SSE,150,14.0,19.0,14,0.00,,,0.00,meteohub,2013-06-23 18:08:00,
2013-06-23 12:13:00,74.1,20.1,29.59,ESE,110,20.0,20.0,13,0.00,,,0.00,meteohub,2013-06-23 18:13:00,
2013-06-23 12:18:00,73.9,19.9,29.59,SSW,193,7.0,19.0,13,0.00,,,0.00,meteohub,2013-06-23 18:18:00,
2013-06-23 12:23:00,73.9,21.7,29.59,ESE,110,16.0,24.0,14,0.00,,,0.00,meteohub,2013-06-23 18:23:00,
2013-06-23 12:28:00,73.6,21.4,29.59,SSE,165,5.0,24.0,14,0.00,,,0.00,meteohub,2013-06-23 18:28:00,
2013-06-23 12:33:00,74.7,22.3,29.58,SE,139,15.0,21.0,14,0.00,,,0.00,meteohub,2013-06-23 18:33:00,
2013-06-23 12:38:00,73.8,21.6,29.58,SE,146,15.0,23.0,14,0.00,,,0.00,meteohub,2013-06-23 18:38:00,
2013-06-23 12:43:00,73.6,21.4,29.58,SSE,166,16.0,23.0,14,0.00,,,0.00,meteohub,2013-06-23 18:43:00,
2013-06-23 12:48:00,73.8,21.6,29.58,South,169,9.0,23.0,14,0.00,,,0.00,meteohub,2013-06-23 18:48:00,
2013-06-23 12:53:00,74.1,20.1,29.58,SE,129,13.0,23.0,13,0.00,,,0.00,meteohub,2013-06-23 18:53:00,
2013-06-23 12:58:00,73.4,19.6,29.58,SE,132,6.0,23.0,13,0.00,,,0.00,meteohub,2013-06-23 18:58:00,
2013-06-23 13:04:00,73.0,21.0,29.58,SSE,166,8.0,21.0,14,0.00,,,0.00,meteohub,2013-06-23 19:04:00,
2013-06-23 13:09:00,73.8,19.8,29.57,SSE,163,7.0,21.0,13,0.00,,,0.00,meteohub,2013-06-23 19:09:00,
2013-06-23 13:14:00,75.2,21.0,29.57,ESE,106,13.0,16.0,13,0.00,,,0.00,meteohub,2013-06-23 19:14:00,
2013-06-23 13:19:00,74.1,20.1,29.57,SSE,167,4.0,19.0,13,0.00,,,0.00,meteohub,2013-06-23 19:19:00,
2013-06-23 13:24:00,74.5,20.5,29.57,ESE,107,14.0,19.0,13,0.00,,,0.00,meteohub,2013-06-23 19:24:00,
2013-06-23 13:29:00,74.5,22.1,29.57,South,172,10.0,22.0,14,0.00,,,0.00,meteohub,2013-06-23 19:29:00,
2013-06-23 13:34:00,75.0,20.8,29.57,South,189,2.0,22.0,13,0.00,,,0.00,meteohub,2013-06-23 19:34:00,
2013-06-23 13:39:00,75.7,17.4,29.56,SE,134,8.0,22.0,11,0.00,,,0.00,meteohub,2013-06-23 19:39:00,
2013-06-23 13:44:00,75.9,17.6,29.56,ESE,123,6.0,19.0,11,0.00,,,0.00,meteohub,2013-06-23 19:44:00,
2013-06-23 13:49:00,75.7,17.4,29.56,ESE,113,9.0,19.0,11,0.00,,,0.00,meteohub,2013-06-23 19:49:00,
2013-06-23 13:54:00,75.7,17.4,29.55,South,183,14.0,19.0,11,0.00,,,0.00,meteohub,2013-06-23 19:54:00,
2013-06-23 13:59:00,75.2,17.1,29.55,SSE,163,18.0,20.0,11,0.00,,,0.00,meteohub,2013-06-23 19:59:00,
2013-06-23 14:04:00,74.5,16.5,29.54,East,98,16.0,23.0,11,0.00,,,0.00,meteohub,2013-06-23 20:04:00,
2013-06-23 14:09:00,74.7,16.7,29.54,SE,145,11.0,26.0,11,0.00,,,0.00,meteohub,2013-06-23 20:09:00,
2013-06-23 14:14:00,75.7,17.4,29.54,SW,224,11.0,26.0,11,0.00,,,0.00,meteohub,2013-06-23 20:14:00,
2013-06-23 14:19:00,76.5,18.0,29.54,SE,134,9.0,24.0,11,0.00,,,0.00,meteohub,2013-06-23 20:19:00,
2013-06-23 14:25:00,76.6,18.1,29.54,ESE,111,8.0,26.0,11,0.00,,,0.00,meteohub,2013-06-23 20:25:00,
2013-06-23 14:30:00,75.6,17.4,29.54,SSW,197,8.0,26.0,11,0.00,,,0.00,meteohub,2013-06-23 20:30:00,
2013-06-23 14:35:00,76.1,17.8,29.53,SSW,193,13.0,28.0,11,0.00,,,0.00,meteohub,2013-06-23 20:35:00,
2013-06-23 14:40:00,75.9,17.6,29.53,SE,139,18.0,28.0,11,0.00,,,0.00,meteohub,2013-06-23 20:40:00,
2013-06-23 14:45:00,75.7,17.4,29.53,ESE,121,13.0,28.0,11,0.00,,,0.00,meteohub,2013-06-23 20:45:00,
2013-06-23 14:50:00,75.7,17.4,29.53,SSE,159,9.0,26.0,11,0.00,,,0.00,meteohub,2013-06-23 20:50:00,
2013-06-23 14:55:00,76.8,18.3,29.53,SE,139,5.0,25.0,11,0.00,,,0.00,meteohub,2013-06-23 20:55:00,
2013-06-23 15:00:00,77.2,18.7,29.52,SSE,158,11.0,26.0,11,0.00,,,0.00,meteohub,2013-06-23 21:00:00,
2013-06-23 15:05:00,76.8,18.3,29.53,SE,140,18.0,26.0,11,0.00,,,0.00,meteohub,2013-06-23 21:05:00,
2013-06-23 15:10:00,75.9,17.6,29.52,SW,214,7.0,24.0,11,0.00,,,0.00,meteohub,2013-06-23 21:10:00,
2013-06-23 15:15:00,75.6,17.4,29.52,SSE,150,7.0,23.0,11,0.00,,,0.00,meteohub,2013-06-23 21:15:00,
2013-06-23 15:20:00,75.6,17.4,29.53,ESE,118,16.0,24.0,11,0.00,,,0.00,meteohub,2013-06-23 21:20:00,
2013-06-23 15:25:00,75.4,17.2,29.53,ESE,112,8.0,24.0,11,0.00,,,0.00,meteohub,2013-06-23 21:25:00,
2013-06-23 15:30:00,75.4,17.2,29.53,NNW,345,8.0,20.0,11,0.00,,,0.00,meteohub,2013-06-23 21:30:00,
2013-06-23 15:36:00,74.8,16.9,29.53,SSW,198,10.0,18.0,11,0.00,,,0.00,meteohub,2013-06-23 21:36:00,
2013-06-23 15:41:00,74.8,16.9,29.54,South,190,13.0,18.0,11,0.00,,,0.00,meteohub,2013-06-23 21:41:00,
2013-06-23 15:46:00,74.5,18.5,29.54,WSW,238,6.0,18.0,12,0.00,,,0.00,meteohub,2013-06-23 21:46:00,
2013-06-23 15:51:00,72.9,20.8,29.53,West,266,22.0,27.0,14,0.00,,,0.00,meteohub,2013-06-23 21:51:00,
2013-06-23 15:56:00,72.7,19.0,29.53,SW,222,8.0,32.0,13,0.00,,,0.00,meteohub,2013-06-23 21:56:00,
2013-06-23 16:01:00,72.9,22.5,29.53,NW,312,12.0,32.0,15,0.00,,,0.00,meteohub,2013-06-23 22:01:00,
2013-06-23 16:06:00,72.9,22.5,29.53,WNW,298,9.0,32.0,15,0.00,,,0.00,meteohub,2013-06-23 22:06:00,
2013-06-23 16:11:00,72.9,22.5,29.53,NW,317,4.0,21.0,15,0.00,,,0.00,meteohub,2013-06-23 22:11:00,
2013-06-23 16:16:00,73.2,22.8,29.53,WSW,240,3.0,15.0,15,0.00,,,0.00,meteohub,2013-06-23 22:16:00,
2013-06-23 16:21:00,73.6,21.4,29.53,WNW,293,4.0,15.0,14,0.00,,,0.00,meteohub,2013-06-23 22:21:00,
2013-06-23 16:26:00,74.1,18.3,29.52,SW,225,6.0,21.0,12,0.00,,,0.00,meteohub,2013-06-23 22:26:00,
2013-06-23 16:31:00,75.0,19.0,29.51,West,261,2.0,21.0,12,0.00,,,0.00,meteohub,2013-06-23 22:31:00,
2013-06-23 16:36:00,76.1,17.8,29.52,SW,225,15.0,21.0,11,0.00,,,0.00,meteohub,2013-06-23 22:36:00,
2013-06-23 16:41:00,76.8,18.3,29.51,SW,220,9.0,18.0,11,0.00,,,0.00,meteohub,2013-06-23 22:41:00,
2013-06-23 16:46:00,76.6,18.1,29.51,SSW,198,4.0,19.0,11,0.00,,,0.00,meteohub,2013-06-23 22:46:00,
2013-06-23 16:51:00,76.6,18.1,29.51,SE,130,12.0,19.0,11,0.00,,,0.00,meteohub,2013-06-23 22:51:00,
2013-06-23 16:57:00,76.3,18.0,29.51,SSE,160,12.0,16.0,11,0.00,,,0.00,meteohub,2013-06-23 22:57:00,
2013-06-23 17:02:00,75.9,15.4,29.51,SSW,209,8.0,16.0,10,0.00,,,0.00,meteohub,2013-06-23 23:02:00,
2013-06-23 17:07:00,75.7,15.3,29.51,ENE,57,8.0,16.0,10,0.00,,,0.00,meteohub,2013-06-23 23:07:00,
2013-06-23 17:12:00,75.9,15.4,29.51,SSW,194,6.0,16.0,10,0.00,,,0.00,meteohub,2013-06-23 23:12:00,
2013-06-23 17:17:00,76.5,13.5,29.50,WSW,246,9.0,21.0,9,0.00,,,0.00,meteohub,2013-06-23 23:17:00,
2013-06-23 17:22:00,76.8,13.6,29.50,ENE,72,10.0,21.0,9,0.00,,,0.00,meteohub,2013-06-23 23:22:00,
2013-06-23 17:27:00,76.8,13.6,29.50,SSW,209,11.0,19.0,9,0.00,,,0.00,meteohub,2013-06-23 23:27:00,
2013-06-23 17:32:00,77.2,20.7,29.50,SE,127,9.0,19.0,12,0.00,,,0.00,meteohub,2013-06-23 23:32:00,
2013-06-23 17:37:00,76.3,26.8,29.50,SSE,149,7.0,21.0,16,0.00,,,0.00,meteohub,2013-06-23 23:37:00,
2013-06-23 17:42:00,75.6,26.2,29.50,SSW,193,17.0,21.0,16,0.00,,,0.00,meteohub,2013-06-23 23:42:00,
2013-06-23 17:47:00,75.0,28.6,29.50,SSE,153,15.0,21.0,18,0.00,,,0.00,meteohub,2013-06-23 23:47:00,
2013-06-23 17:52:00,74.3,29.3,29.50,SSE,148,19.0,21.0,19,0.00,,,0.00,meteohub,2013-06-23 23:52:00,
2013-06-23 17:57:00,73.8,28.9,29.50,SSE,158,9.0,21.0,19,0.00,,,0.00,meteohub,2013-06-23 23:57:00,
2013-06-23 18:02:00,73.6,30.0,29.50,SE,128,8.0,21.0,20,0.00,,,0.00,meteohub,2013-06-24 00:02:00,
2013-06-23 18:07:00,73.2,32.2,29.50,SE,134,7.0,21.0,22,0.00,,,0.00,meteohub,2013-06-24 00:07:00,
2013-06-23 18:12:00,73.0,32.0,29.50,SE,143,6.0,14.0,22,0.00,,,0.00,meteohub,2013-06-24 00:12:00,
2013-06-23 18:17:00,72.7,32.7,29.50,SSE,162,7.0,16.0,23,0.00,,,0.00,meteohub,2013-06-24 00:17:00,
2013-06-23 18:22:00,72.7,32.7,29.50,East,84,1.0,16.0,23,0.00,,,0.00,meteohub,2013-06-24 00:22:00,
2013-06-23 18:27:00,72.7,32.7,29.50,South,181,7.0,16.0,23,0.00,,,0.00,meteohub,2013-06-24 00:27:00,
2013-06-23 18:32:00,72.9,30.6,29.50,SW,224,5.0,14.0,21,0.00,,,0.00,meteohub,2013-06-24 00:32:00,
2013-06-23 18:37:00,73.0,28.4,29.49,South,169,3.0,12.0,19,0.00,,,0.00,meteohub,2013-06-24 00:37:00,
2013-06-23 18:42:00,72.7,31.6,29.50,South,189,7.0,12.0,22,0.00,,,0.00,meteohub,2013-06-24 00:42:00,
2013-06-23 18:47:00,72.1,34.3,29.49,SSE,150,12.0,12.0,25,0.00,,,0.00,meteohub,2013-06-24 00:47:00,
2013-06-23 18:52:00,71.6,34.9,29.50,SE,144,3.0,14.0,26,0.00,,,0.00,meteohub,2013-06-24 00:52:00,
2013-06-23 18:57:00,71.1,34.5,29.50,SSE,158,5.0,14.0,26,0.00,,,0.00,meteohub,2013-06-24 00:57:00,
2013-06-23 19:02:00,70.9,34.3,29.50,ESE,108,7.0,14.0,26,0.00,,,0.00,meteohub,2013-06-24 01:02:00,
2013-06-23 19:07:00,70.3,35.6,29.50,SSW,201,7.0,13.0,28,0.00,,,0.00,meteohub,2013-06-24 01:07:00,
2013-06-23 19:12:00,70.2,34.7,29.50,South,177,5.0,13.0,27,0.00,,,0.00,meteohub,2013-06-24 01:12:00,
2013-06-23 19:17:00,69.8,37.0,29.51,SW,232,5.0,12.0,30,0.00,,,0.00,meteohub,2013-06-24 01:17:00,
2013-06-23 19:22:00,69.3,37.4,29.51,SW,219,4.0,12.0,31,0.00,,,0.00,meteohub,2013-06-24 01:22:00,
2013-06-23 19:27:00,69.1,37.2,29.51,SSE,159,2.0,12.0,31,0.00,,,0.00,meteohub,2013-06-24 01:27:00,
2013-06-23 19:33:00,69.1,37.2,29.51,South,191,11.0,14.0,31,0.00,,,0.00,meteohub,2013-06-24 01:33:00,
2013-06-23 19:38:00,69.1,36.3,29.52,ESE,108,5.0,15.0,30,0.00,,,0.00,meteohub,2013-06-24 01:38:00,
2013-06-23 19:43:00,69.1,34.5,29.52,SE,132,5.0,15.0,28,0.00,,,0.00,meteohub,2013-06-24 01:43:00,
2013-06-23 19:48:00,69.1,36.3,29.52,SSE,160,3.0,13.0,30,0.00,,,0.00,meteohub,2013-06-24 01:48:00,
2013-06-23 19:53:00,69.1,36.3,29.52,SSE,160,4.0,11.0,30,0.00,,,0.00,meteohub,2013-06-24 01:53:00,
2013-06-23 19:58:00,69.1,36.3,29.52,SSW,208,0.0,10.0,30,0.00,,,0.00,meteohub,2013-06-24 01:58:00,
2013-06-23 20:03:00,68.7,36.0,29.53,West,270,1.0,9.0,30,0.00,,,0.00,meteohub,2013-06-24 02:03:00,
2013-06-23 20:08:00,68.4,36.5,29.53,WSW,238,4.0,8.0,31,0.00,,,0.00,meteohub,2013-06-24 02:08:00,
2013-06-23 20:13:00,68.2,36.3,29.53,WNW,285,1.0,5.0,31,0.00,,,0.00,meteohub,2013-06-24 02:13:00,
2013-06-23 20:18:00,67.6,36.7,29.54,NW,316,1.0,6.0,32,0.00,,,0.00,meteohub,2013-06-24 02:18:00,
2013-06-23 20:23:00,67.5,36.5,29.54,NW,323,2.0,6.0,32,0.00,,,0.00,meteohub,2013-06-24 02:23:00,
2013-06-23 20:28:00,67.5,34.9,29.54,NW,316,1.0,4.0,30,0.00,,,0.00,meteohub,2013-06-24 02:28:00,
2013-06-23 20:33:00,66.9,32.7,29.54,NW,321,1.0,4.0,28,0.00,,,0.00,meteohub,2013-06-24 02:33:00,
2013-06-23 20:38:00,66.7,30.7,29.54,WNW,295,1.0,4.0,26,0.00,,,0.00,meteohub,2013-06-24 02:38:00,
2013-06-23 20:43:00,66.7,33.4,29.54,WSW,252,1.0,4.0,29,0.00,,,0.00,meteohub,2013-06-24 02:43:00,
2013-06-23 20:49:00,66.9,34.5,29.54,West,269,1.0,3.0,30,0.00,,,0.00,meteohub,2013-06-24 02:49:00,
2013-06-23 20:54:00,66.9,36.1,29.54,WSW,256,2.0,2.0,32,0.00,,,0.00,meteohub,2013-06-24 02:54:00,
2013-06-23 20:59:00,66.9,36.9,29.55,West,266,0.0,3.0,33,0.00,,,0.00,meteohub,2013-06-24 02:59:00,
2013-06-23 21:04:00,66.2,33.1,29.55,ENE,77,0.0,3.0,29,0.00,,,0.00,meteohub,2013-06-24 03:04:00,
2013-06-23 21:09:00,65.7,33.4,29.55,NNW,329,2.0,3.0,30,0.00,,,0.00,meteohub,2013-06-24 03:09:00,
2013-06-23 21:14:00,64.9,31.1,29.55,NW,319,1.0,3.0,28,0.00,,,0.00,meteohub,2013-06-24 03:14:00,
2013-06-23 21:19:00,64.9,31.1,29.55,NNW,339,3.0,3.0,28,0.00,,,0.00,meteohub,2013-06-24 03:19:00,
2013-06-23 21:24:00,65.1,29.3,29.55,NNE,27,3.0,3.0,26,0.00,,,0.00,meteohub,2013-06-24 03:24:00,
2013-06-23 21:29:00,64.9,29.3,29.55,NNW,335,3.0,5.0,26,0.00,,,0.00,meteohub,2013-06-24 03:29:00,
2013-06-23 21:34:00,64.6,29.8,29.55,NNW,333,3.0,5.0,27,0.00,,,0.00,meteohub,2013-06-24 03:34:00,
2013-06-23 21:39:00,63.9,29.3,29.56,NNW,338,6.0,6.0,27,0.00,,,0.00,meteohub,2013-06-24 03:39:00,
2013-06-23 21:44:00,63.3,30.6,29.56,NW,323,3.0,8.0,29,0.00,,,0.00,meteohub,2013-06-24 03:44:00,
2013-06-23 21:49:00,63.0,31.8,29.56,WNW,290,3.0,8.0,31,0.00,,,0.00,meteohub,2013-06-24 03:49:00,
2013-06-23 21:54:00,63.0,31.8,29.56,NW,310,2.0,8.0,31,0.00,,,0.00,meteohub,2013-06-24 03:54:00,
2013-06-23 21:59:00,62.6,32.4,29.57,West,267,4.0,7.0,32,0.00,,,0.00,meteohub,2013-06-24 03:59:00,
2013-06-23 22:01:00,62.4,32.2,29.57,West,276,2.0,7.0,32,0.00,,,0.00,meteohub,2013-06-24 04:01:00,
2013-06-23 22:02:00,62.4,32.2,29.57,WNW,286,1.0,7.0,32,0.00,,,0.00,meteohub,2013-06-24 04:02:00,
2013-06-23 22:07:00,62.2,32.7,29.57,West,274,5.0,6.0,33,0.00,,,0.00,meteohub,2013-06-24 04:07:00,
2013-06-23 22:09:00,62.1,32.5,29.57,West,274,3.0,6.0,33,0.00,,,0.00,meteohub,2013-06-24 04:09:00,
2013-06-23 22:14:00,63.0,32.7,29.57,WNW,297,0.0,6.0,32,0.00,,,0.00,meteohub,2013-06-24 04:14:00,
2013-06-23 22:19:00,63.3,32.2,29.57,WNW,283,0.0,6.0,31,0.00,,,0.00,meteohub,2013-06-24 04:19:00,
2013-06-23 22:24:00,63.3,32.2,29.57,WSW,250,0.0,5.0,31,0.00,,,0.00,meteohub,2013-06-24 04:24:00,
2013-06-23 22:29:00,63.5,32.4,29.57,NNE,25,1.0,3.0,31,0.00,,,0.00,meteohub,2013-06-24 04:29:00,
2013-06-23 22:34:00,63.7,31.6,29.58,ENE,70,0.0,2.0,30,0.00,,,0.00,meteohub,2013-06-24 04:34:00,
2013-06-23 22:39:00,63.0,31.1,29.58,NE,46,3.0,6.0,30,0.00,,,0.00,meteohub,2013-06-24 04:39:00,
2013-06-23 22:44:00,62.4,30.6,29.57,NE,37,2.0,6.0,30,0.00,,,0.00,meteohub,2013-06-24 04:44:00,
2013-06-23 22:49:00,62.1,31.1,29.58,NNE,19,1.0,6.0,31,0.00,,,0.00,meteohub,2013-06-24 04:49:00,
2013-06-23 22:54:00,61.5,30.6,29.58,NNW,345,0.0,5.0,31,0.00,,,0.00,meteohub,2013-06-24 04:54:00,
2013-06-23 22:59:00,62.1,28.6,29.58,East,98,0.0,5.0,28,0.00,,,0.00,meteohub,2013-06-24 04:59:00,
2013-06-23 23:04:00,62.4,28.9,29.58,SW,214,1.0,5.0,28,0.00,,,0.00,meteohub,2013-06-24 05:04:00,
2013-06-23 23:09:00,62.1,28.6,29.58,ENE,75,2.0,2.0,28,0.00,,,0.00,meteohub,2013-06-24 05:09:00,
2013-06-23 23:14:00,61.5,28.9,29.58,NE,41,3.0,3.0,29,0.00,,,0.00,meteohub,2013-06-24 05:14:00,
2013-06-23 23:19:00,61.0,29.3,29.58,WNW,285,2.0,3.0,30,0.00,,,0.00,meteohub,2013-06-24 05:19:00,
2013-06-23 23:25:00,59.2,30.0,29.59,NNW,327,3.0,5.0,33,0.00,,,0.00,meteohub,2013-06-24 05:25:00,
2013-06-23 23:30:00,59.4,30.2,29.58,North,9,3.0,5.0,33,0.00,,,0.00,meteohub,2013-06-24 05:30:00,
2013-06-23 23:35:00,59.4,30.2,29.58,NNW,327,4.0,5.0,33,0.00,,,0.00,meteohub,2013-06-24 05:35:00,
2013-06-23 23:40:00,57.9,30.4,29.58,NW,308,3.0,5.0,35,0.00,,,0.00,meteohub,2013-06-24 05:40:00,
2013-06-23 23:46:00,56.5,29.8,29.58,NW,305,3.0,5.0,36,0.00,,,0.00,meteohub,2013-06-24 05:46:00,
2013-06-23 23:51:00,57.7,30.2,29.58,West,277,4.0,5.0,35,0.00,,,0.00,meteohub,2013-06-24 05:51:00,
2013-06-23 23:56:00,57.9,29.7,29.57,WNW,288,4.0,5.0,34,0.00,,,0.00,meteohub,2013-06-24 05:56:00,